Flag for Colombia Weather past 2 weeks in Cali, Colombia

Now
84 °F

Scattered clouds.


Feels Like: 87 °F
Forecast: 70 / 85 °F
Wind: 14 mph from Northwest

Location: Cali / Alfonso Bonillaaragon

Current Time: Mar 1, 2015 at 4:10:28 PM

Latest Report: Mar 1, 2015 at 3:00 PM


Visibility: N/A

Pressure: 29.86 "Hg

Humidity: 55%

Dew point: 66 °F

Location of CaliLocation

Historic Weather in Cali — Graph

°F

Cali temperature yesterday

Maximum temperature yesterday: 88 °F (at 1:00 PM)
Minimum temperature yesterday: 64 °F (at 4:00 AM)
Average temperature yesterday: 75 °F

Past Weeks' High & Low Weather Summary

 TemperatureHumidityPressure
High90 °F (Feb 16, 2:00 PM)100% (Feb 15, 5:00 AM)30.30 "Hg (Feb 15, 5:00 AM)
Low59 °F (Feb 27, 8:00 AM)38% (Feb 23, 3:00 PM)29.72 "Hg (Feb 27, 4:00 PM)
Average77 °F70%29.93 "Hg
* Reported Feb 14 2:00 PM — Mar 1 2:00 PM, Cali, Weather by CustomWeather, © 2015

Note: Actual official high and low records may vary slightly from our data, if they occured in-between our weather recording intervals... More about our weather records

Advertising

Cali weather history for previous 24 hours

 ConditionsComfort  
Time TempWeatherWind HumidityBarometerVisibility
2:00 PM
Sun, Mar 1
90 °FScattered clouds.5 mph43%29.88 "HgN/A
1:00 PM88 °FScattered clouds.No wind46%29.94 "HgN/A
12:00 PM86 °FPassing clouds.5 mph46%29.98 "HgN/A
11:00 AM82 °FPassing clouds.5 mph58%30.01 "HgN/A
10:00 AM79 °FPassing clouds.No wind65%30.04 "HgN/A
9:00 AM77 °FScattered clouds.5 mph69%30.04 "HgN/A
8:00 AM72 °FScattered showers. Broken clouds.3 mph88%30.03 "Hg6 mi
7:00 AM68 °FDrizzle. Broken clouds.5 mph94%30.02 "Hg6 mi
6:00 AM70 °FScattered showers. Partly cloudy.No wind88%30.00 "Hg6 mi
5:00 AM70 °FPartly cloudy.5 mph88%29.97 "HgN/A
4:00 AM70 °FPartly cloudy.5 mph88%29.95 "HgN/A
3:00 AM70 °FPartly cloudy.No wind88%29.95 "HgN/A
2:00 AM70 °FPassing clouds.3 mph88%29.96 "HgN/A
1:00 AM72 °FPassing clouds.No wind83%29.97 "HgN/A
12:00 AM70 °FClear.5 mph88%29.98 "Hg10 mi
11:00 PM
Sat, Feb 28
72 °FPassing clouds.7 mph83%29.99 "HgN/A
10:00 PM72 °FPassing clouds.6 mph83%29.91 "HgN/A
9:00 PM73 °FPassing clouds.7 mph78%29.96 "HgN/A
8:00 PM75 °FPassing clouds.7 mph74%29.94 "HgN/A
7:00 PM77 °FPassing clouds.12 mph69%29.89 "HgN/A
6:00 PM81 °FScattered showers. Broken clouds.16 mph62%29.86 "HgN/A
5:00 PMN/ADrizzle.3 mphN/AN/AN/A
4:00 PM88 °FPartly sunny.7 mph46%29.84 "HgN/A
Weather by CustomWeather, © 2015

See weather overviewHow to use our weather pages